Voltar ao catálogo

ATLAS CENTAUR R/B

AtivoHEO
NORAD 15874·ROCKET BODY·🇺🇸 United States

Lançado Jun 30, 1985 de Cape Canaveral Space Force Station

Loading…

Próximas Passagens (próximas 24 horas)

TLE

AtualizadoSource: Space-Track

Época: Sep 12, 2026, 02:51 UTC

1 15874U 85055B   26255.11882853  .00003607  00000-0  12703-2 0  9995
2 15874  23.1428 275.4536 6454549  60.7700 348.3468  3.36230357440248

Acompanhe ATLAS CENTAUR R/B em tempo real com AllMySat

Download on the App Store